Torna al catalogo

STARLINK-30474

AttivoComunicazioniVLEO
NORAD 57897·PAYLOAD·🇺🇸 United States

Lanciato Sep 20, 2023 da Cape Canaveral Space Force Station

Loading…

Prossimi Passaggi (prossime 24 ore)

TLE

AggiornatoSource: CelesTrak SupGP

Epoca: Sep 14, 2026, 21:15 UTC

1 57897C 23146G   26257.88590278 -.00074268  00000+0 -26898-2 0  2571
2 57897  43.0027 325.7330 0001521 269.4277   5.7813 15.27617538    13

Traccia STARLINK-30474 in tempo reale con AllMySat

Download on the App Store